Regional Weather Roundup
Issued by NWS

Home | Current Version | Previous Version | Graphics & Text | Print | Product List | Glossary Off
Versions: 1 2 3 4 5 6 7 8 9 10 11 12 13 14 15 16 17 18 19 20 21 22 23 24 25 26 27 28 29 30 31 32 33 34 35 36 37 38 39 40 41 42 43 44 45 46 47 48 49 50

000
ASUS43 KMKX 300321
RWRWI

WISCONSIN REGIONAL WEATHER ROUNDUP
NATIONAL WEATHER SERVICE MILWAUKEE/SULLIVAN WI
1000 PM CDT MON SEP 29 2014

NOTE: "FAIR" INDICATES FEW OR NO CLOUDS BELOW 12,000 FEET WITH NO
SIGNIFICANT WEATHER AND/OR OBSTRUCTIONS TO VISIBILITY.

WIZ001-002-006>008-014>016-023>028-300400-
NORTHWEST WISCONSIN

CITY           SKY/WX    TMP DP  RH WIND       PRES   REMARKS
SUPERIOR ARPT  CLOUDY    45  39  81 E9        30.20S
ASHLAND        CLOUDY    44  39  82 E9        30.21S
HAYWARD        CLOUDY    42  39  89 NE7G21    30.18R
SIREN          CLOUDY    44  38  81 E7        30.16F
CUMBERLAND     CLOUDY    43  37  81 E8        30.14S
RICE LAKE      CLOUDY    43  38  82 NE10      30.16S
CHETEK         CLOUDY    43  39  84 NE6       30.15S
LADYSMITH      CLOUDY    43  38  84 NE6       30.16F
EAU CLAIRE     FAIR      45  39  79 NE8       30.11S
MENOMONIE      CLEAR     46  39  77 N8        30.13S
NEW RICHMOND   CLEAR     44  40  87 CALM      30.13S
OSCEOLA        CLEAR     43  42  97 N7        30.16S
$$

WIZ003>005-009-010-017-018-300400-
NORTH CENTRAL WISCONSIN

CITY           SKY/WX    TMP DP  RH WIND       PRES   REMARKS
MANITOWISH WTR CLOUDY    37  37 100 NE10      30.16S WCI  30
ARBOR VITAE    CLOUDY    39  37  90 NE8       30.15S WCI  34
WOODRUFF       CLOUDY    39  37  90 NE8       30.15S WCI  34
RHINELANDER    CLOUDY    38  36  92 NE6       30.16R WCI  33
EAGLE RIVER    LGT SNOW  37  37 100 NE12      30.14F WCI  29
LAND O LAKES   CLOUDY    37  37  98 N7        30.16F FOG     WCI  32
PHILLIPS       CLOUDY    39  37  94 NE13G18   30.15F WCI  31
TOMAHAWK       CLOUDY    39  36  87 N9        30.15R WCI  33
MEDFORD        CLOUDY    40  37  90 NE9       30.13R WCI  34
MERRILL        CLOUDY    41  38  88 N8        30.14R
$$

WIZ029-030-035-036-043>047-300400-
CENTRAL WISCONSIN

CITY           SKY/WX    TMP DP  RH WIND       PRES   REMARKS
WAUSAU         CLOUDY    43  37  79 N7        30.12R
MOSINEE        CLOUDY    43  39  87 N9        30.12S
MARSHFIELD     CLEAR     44  39  82 NE9       30.10S
STEVENS POINT  CLOUDY    45  39  81 N7        30.11S
WAUPACA        CLOUDY    49  41  74 N6        30.10S
WAUTOMA        NOT AVBL
WISC RAPIDS    MOCLDY    48  41  76 NE7       30.11S
CAMP DOUGLAS   MOCLDY    46  46 100 NE2       30.08F
$$

WIZ011>013-019>022-031-037>040-048>050-300400-
NORTHEAST WISCONSIN

CITY           SKY/WX    TMP DP  RH WIND       PRES   REMARKS
ANTIGO         CLOUDY    40  37  88 N9        30.12S WCI  34
SHAWANO        CLOUDY    47  40  75 NE12G17   30.12R
OCONTO         CLOUDY    44  38  82 NE13      30.11S
STURGEON BAY   NOT AVBL
GREEN BAY      MOCLDY    46  40  79 N10       30.10R
MANITOWOC      NOT AVBL
APPLETON       CLOUDY    46  39  76 N12G18    30.09S
CLINTONVILLE   CLOUDY    45  37  76 N8        30.11S
OSHKOSH        CLOUDY    49  42  77 N13       30.08S
$$

WIZ032>034-041-042-053>061-300400-
SOUTHWEST WISCONSIN

CITY           SKY/WX    TMP DP  RH WIND       PRES   REMARKS
LA CROSSE      CLEAR     54  48  80 N8        30.08R
SPARTA         CLEAR     46  45  98 N5        30.10S
VIROQUA        CLEAR     50  49  96 NE8       30.07S
BOSCOBEL       PTCLDY    55  48  77 NE8       30.06S
PRAIRIE DU CHI CLOUDY    56  48  74 NE12      30.05S
PLATTEVILLE    CLOUDY    54  52  92 NE8       30.05S
$$

WIZ056-057-062-063-064-067-068-300400-
SOUTH CENTRAL WISCONSIN

CITY           SKY/WX    TMP DP  RH WIND       PRES   REMARKS
REEDSBURG      CLOUDY    51  48  87 N9        30.07S
BARABOO/DELLS  CLOUDY    51  47  87 NE8       30.07S
LONE ROCK      CLOUDY    58  49  72 N10       30.06S
MINERAL POINT  CLOUDY    54  50  87 NE13      30.05S
MADISON        CLOUDY    51  48  89 NE12      30.06S
MIDDLETON      CLOUDY    53  50  90 N15       30.06S
WATERTOWN      CLOUDY    49  49 100 NE9       30.05F FOG
MONROE         CLOUDY    52  50  93 NE10      30.04R
JANESVILLE     CLOUDY    54  46  76 NE9G17    30.04R
$$

WIZ051-052-058>065-066-070>072-300400-
SOUTHEAST WISCONSIN

CITY           SKY/WX    TMP DP  RH WIND       PRES   REMARKS
MILWAUKEE      CLOUDY    51  46  83 N15G22    30.05S
WAUKESHA       CLOUDY    46  45  93 N9        30.06S
MILWAUKEE/TIMM CLOUDY    48  45  87 NE9       30.06S FOG
RACINE         CLOUDY    53  48  83 N16G29    30.05S
BURLINGTON     CLOUDY    49  47  91 NE7       30.04F
KENOSHA        CLOUDY    52  50  93 N7G17     30.04R
FOND DU LAC    CLOUDY    50  44  80 N17       30.08S
SHEBOYGAN      NOT AVBL
WEST BEND      CLOUDY    48  43  81 NE8       30.06S
JUNEAU         DRIZZLE   49  48  96 NE10G17   30.07S
$$

LSZ147-162-300400-
LAKE SUPERIOR

STATION/POSITION TIME  TEMP    WIND        PRES    WAVE
                       AIR SEA DIR/SP/G            HT/PER
                 (UTC) (F)     (DEG/KT/KT) (MB)    (FT/S)
W MID LAKE BUOY  0250   45 50   20/ 14/ 17 1023.5F   4/ 7
DEVILS ISLAND    0300   45      80/ 17/ 19 1023.7F
SAXON HARBOR     0200   45      70/  8/ 11 1022.7S
$$

LMZ867-665-643>646-300400-
LAKE MICHIGAN

STATION/POSITION TIME  TEMP    WIND        PRES    WAVE
                       AIR SEA DIR/SP/G            HT/PER
                 (UTC) (F)     (DEG/KT/KT) (MB)    (FT/S)
CHAMBERS ISLAND  0200   47     330/ 20/ 26 1019.3S
S GREEN BAY BUOY 0200   48                 1020.3R
N MID LAKE BUOY  0250   47 58  350/ 21/ 25 1017.5R   5/ 5
NORTHPORT PIER   0300   47     350/ 20     1019.0S
KEWAUNEE LAKESHO 0300   46     360/  8/ 14 1017.9R
SHEBOYGAN LAKESH 0300   49 55   10/ 23/ 25 1018.3F
PORT WASHINGTON  0200           30/  7/ 11 1018.6R
ATWATER BUOY     0300   53      20/ 19/ 25 1018.3S
MILWAUKEE LAKESH 0300          360/ 16/ 21   N/A
S MID LAKE BUOY  0250   54 63  360/ 23/ 29 1015.8R   9/ 7
KENOSHA   LAKESH 0300           10/ 24/ 27 1016.6S
$$

TC  - TEMPERATURE IN CELSIUS
VSB - VISIBILITY IN STATUTE MILES
WCI - WIND CHILL INDEX
HX  - HEAT INDEX



USA.gov is the U.S. government's official web portal to all federal, state and local government web resources and services.